Wind_Speed
19 19 19 19 19 18 18 17 17 17 17 17 17 17 17 16 16 17 17 17 17 16 16 16 16 16 16 16 16 16 16 16 16 16 15 15 15 15 14 14 14 14 14
20 20 20 20 19 19 19 19 19 19 19 19 18 19 19 19 18 18 18 19 19 18 18 18 18 17 18 17 17 18 18 18 17 17 17 16 16 17 16 16 16 16 16
20 21 21 21 20 21 20 20 20 20 20 20 21 20 21 21 21 20 20 21 21 20 20 20 20 19 19 19 19 19 19 19 19 19 18 18 18 18 18 18 16 16 16
21 21 21 21 22 22 22 22 22 22 22 23 23 22 22 23 22 22 22 22 22 22 22 22 21 21 21 21 21 21 21 21 21 21 21 21 20 19 19 19 19 19 18
22 22 22 22 22 23 23 23 24 24 25 25 24 24 23 23 24 24 24 23 24 23 23 23 23 23 23 23 23 22 22 23 23 22 22 22 22 21 21 21 21 21 20
24 24 24 24 24 24 23 24 24 25 25 25 25 25 24 24 24 24 25 25 25 24 24 24 25 25 25 25 25 25 24 24 24 24 24 23 23 23 23 23 23 22 22
26 26 25 25 25 25 25 25 25 25 25 25 25 25 25 25 26 26 26 26 26 26 26 26 25 26 27 27 27 27 27 27 26 26 25 25 25 25 25 25 25 24 24
26 26 26 25 25 25 25 25 26 25 25 26 26 26 27 27 27 27 27 28 27 27 27 28 28 27 28 28 28 28 29 29 29 29 28 28 28 28 28 27 27 26 26
26 26 26 26 26 27 27 27 27 26 26 27 28 28 28 28 28 28 29 29 29 29 29 29 29 29 29 29 29 29 30 30 30 30 30 30 29 29 29 29 29 29 28
27 27 27 27 27 27 28 28 27 27 27 28 28 28 29 29 30 30 30 30 30 30 30 30 31 31 31 31 31 30 30 31 31 30 30 30 30 30 30 31 31 30 30
27 27 27 28 28 29 28 28 29 28 28 29 29 29 29 30 30 31 31 31 31 31 31 31 31 31 31 31 32 31 30 31 31 31 31 31 31 31 31 32 31 31 30
28 28 28 29 29 29 29 29 29 29 29 30 30 30 30 30 30 30 31 32 32 32 32 31 31 31 31 32 32 32 32 32 32 32 32 32 32 32 32 32 31 31 31
29 29 29 30 30 30 30 29 30 30 31 30 30 30 30 31 31 31 31 32 32 33 32 32 31 31 31 32 33 33 33 33 33 33 33 33 33 33 32 32 31 31 30
29 30 30 30 30 30 29 30 30 30 30 30 30 31 31 30 31 31 32 32 32 32 33 33 32 32 33 33 33 33 34 34 34 34 34 33 34 33 33 33 32 32 32
29 29 29 29 29 29 29 29 28 28 29 29 30 30 30 30 30 30 30 31 32 33 33 33 32 33 33 34 33 34 34 34 34 34 34 34 34 34 34 33 33 34 33
29 29 29 30 29 29 30 30 29 29 29 30 30 30 30 30 31 30 30 31 31 32 32 32 33 33 34 35 35 34 34 34 34 34 34 34 34 34 34 34 34 34 34
30 30 30 29 29 30 30 30 30 30 30 30 31 31 31 31 31 31 31 32 32 32 32 32 33 33 34 34 35 35 35 35 34 35 35 34 35 35 35 35 35 35 34
30 31 30 30 30 30 30 30 30 30 31 31 31 31 32 32 32 32 32 32 32 33 32 32 33 33 33 34 35 35 35 35 35 35 35 35 35 35 35 35 35 35 35
31 31 31 31 31 31 31 31 31 31 31 32 32 32 32 33 32 32 32 32 33 33 33 33 33 33 33 33 34 34 35 35 35 35 35 35 35 35 35 35 36 36 35
31 31 32 32 32 31 31 31 31 31 31 32 32 32 32 32 33 33 32 32 32 33 33 33 33 33 33 33 33 34 35 35 35 35 36 36 36 36 35 36 36 36 36
32 32 32 32 32 32 32 32 32 32 32 32 33 33 33 33 33 34 34 33 33 34 34 34 34 33 33 33 33 33 34 34 35 36 36 36 37 37 37 37 37 37 36
34 34 34 33 33 33 33 33 33 33 33 33 33 33 34 34 34 34 35 35 36 36 36 36 35 35 35 35 35 35 35 35 35 36 36 37 37 37 37 37 37 37 37
34 34 34 34 34 34 34 34 35 35 35 35 35 35 36 36 36 36 37 37 37 37 37 37 37 36 37 36 36 37 37 37 37 37 37 37 38 37 38 38 38 38 38
33 34 34 35 35 35 36 36 37 37 37 37 37 37 37 37 37 37 37 37 38 38 38 38 39 39 39 38 38 38 38 38 37 37 37 37 37 37 37 38 38 38 38
33 34 34 34 35 36 36 37 38 38 39 39 39 39 39 38 38 38 38 38 38 38 38 39 39 40 40 40 40 40 40 39 39 38 38 38 38 38 38 38 38 38 39
34 35 35 35 35 36 36 37 38 38 39 40 40 39 39 39 39 39 39 39 39 39 39 39 39 39 40 41 41 41 41 40 40 41 40 40 40 40 40 40 40 40 40
Wind_Direction
279 278 278 279 280 279 276 274 272 269 269 268 268 273 275 277 278 277 276 276 277 279 279 277 277 280 282 282 281 283 283 284 285 284 284 285 285 287 289 289 289 286 284
277 279 280 278 278 277 275 272 270 270 270 269 268 271 273 274 275 277 275 274 275 277 279 281 281 280 279 280 281 280 281 281 282 283 283 283 284 286 288 288 287 283 281
275 276 278 278 277 276 274 271 270 270 271 270 273 273 273 273 273 275 274 273 274 275 277 278 280 281 281 280 281 281 281 281 281 281 283 283 283 283 284 286 285 283 281
275 276 276 276 276 275 273 271 271 271 271 271 273 272 271 271 272 273 273 273 274 275 275 276 277 279 280 279 278 278 280 280 279 279 281 282 283 283 283 284 284 283 281
276 276 276 278 278 277 275 275 272 272 272 272 272 272 271 271 272 273 272 273 274 274 274 274 275 277 278 277 277 277 278 278 279 279 280 280 279 281 282 282 282 283 282
277 277 277 277 278 278 278 275 273 272 272 271 273 272 271 272 272 273 273 273 273 272 273 273 276 276 276 276 276 276 277 278 278 278 279 278 278 278 280 280 280 280 280
277 277 276 277 278 277 277 275 274 273 272 271 271 271 271 272 271 272 273 273 273 273 272 273 276 276 275 274 276 276 276 277 277 277 277 277 277 277 277 278 278 279 278
277 277 277 278 278 277 277 276 274 273 272 272 271 270 271 272 272 272 272 273 273 273 273 273 274 275 276 275 276 276 275 275 276 276 276 276 276 276 276 276 277 276 277
278 278 278 278 278 278 276 277 276 273 272 271 271 270 270 272 273 273 273 274 273 273 273 273 273 274 275 276 276 275 275 274 275 275 275 275 275 276 276 275 275 275 275
279 279 279 278 278 277 276 277 277 275 273 273 273 272 272 272 273 272 273 274 274 274 274 273 272 272 273 275 276 276 276 275 275 275 275 274 274 274 275 275 275 274 273
279 278 279 279 279 280 279 279 278 276 274 273 273 272 273 274 275 273 271 272 273 274 274 273 273 273 273 274 275 275 276 277 276 276 275 275 274 275 276 276 274 274 273
280 279 279 279 280 281 280 280 278 278 276 274 273 274 273 273 275 274 273 273 274 274 274 273 273 272 272 273 274 275 275 276 275 276 276 275 274 274 274 275 274 273 272
280 279 279 280 280 280 280 279 278 278 277 277 276 275 275 274 273 274 274 274 275 275 274 274 273 273 273 273 274 274 275 276 276 277 277 276 274 272 272 272 272 272 272
280 279 281 281 281 282 281 280 279 278 278 278 278 277 276 275 275 274 274 275 274 274 274 273 273 272 272 273 274 274 275 276 278 278 277 276 274 272 271 271 271 272 271
282 281 282 281 281 282 282 282 280 279 278 278 279 278 277 278 277 276 275 275 274 274 274 274 275 274 273 272 272 273 275 276 277 278 277 276 275 273 272 271 271 271 271
282 282 282 281 281 281 281 281 280 280 279 279 279 279 279 278 277 277 277 276 276 276 276 275 275 275 275 273 271 272 273 273 275 276 276 275 275 274 272 271 271 271 270
283 283 283 281 281 281 282 281 279 279 280 281 280 279 279 279 278 278 277 278 278 278 278 277 276 275 275 273 271 271 272 274 274 274 274 273 273 272 271 270 271 271 271
285 284 283 282 281 281 281 281 281 281 281 280 280 280 279 278 278 278 278 278 278 278 278 278 278 277 276 274 271 270 272 273 274 275 274 273 272 272 271 270 271 271 271
285 284 284 283 283 282 281 280 281 281 281 281 280 279 278 278 278 278 278 278 278 278 278 278 279 278 277 275 273 271 272 274 274 274 275 275 274 273 272 271 270 270 271
284 284 284 284 283 282 281 280 281 281 281 280 280 280 279 278 278 278 278 278 278 278 278 278 278 277 276 276 274 273 274 274 273 273 274 274 275 273 273 273 273 272 271
284 284 284 284 283 282 281 281 280 281 282 282 281 280 279 278 278 278 278 277 276 277 278 278 277 276 276 277 276 275 275 275 274 274 273 273 274 274 273 273 274 273 272
284 283 283 283 282 281 281 281 281 281 281 282 282 281 280 279 279 278 278 277 276 276 277 277 276 276 275 276 275 275 275 275 276 275 274 273 273 273 273 273 273 272 272
285 284 283 283 282 281 280 280 281 281 282 282 282 282 281 280 279 279 279 279 279 278 277 276 275 275 275 275 275 276 277 277 277 276 276 274 273 273 273 273 273 271 271
287 286 285 284 283 282 281 281 281 282 282 283 282 282 281 281 280 280 280 279 279 279 277 276 274 274 275 275 275 276 276 276 276 276 276 276 275 273 273 273 273 271 271
289 288 286 285 284 283 283 282 282 282 282 282 282 281 281 281 280 280 279 279 280 279 278 276 275 275 276 275 275 276 276 276 276 275 276 276 275 274 274 275 274 272 272
290 289 288 287 286 285 285 284 284 283 282 282 281 281 281 281 280 279 278 278 279 279 278 277 276 277 277 276 276 277 276 276 276 276 275 275 275 274 274 274 273 272 271
Height
5802 5802 5802 5802 5802 5802 5802 5803 5803 5803 5804 5804 5805 5805 5806 5806 5806 5806 5806 5806 5806 5806 5806 5806 5806 5806 5806 5805 5805 5805 5805 5804 5804 5803 5803 5802 5802 5801 5800 5800 5799 5798 5798
5798 5798 5798 5798 5797 5797 5798 5798 5798 5798 5799 5799 5800 5800 5800 5801 5801 5801 5801 5802 5802 5801 5801 5801 5801 5801 5801 5801 5801 5800 5800 5800 5800 5799 5799 5798 5798 5797 5796 5796 5795 5795 5794
5793 5793 5793 5793 5793 5792 5792 5792 5793 5793 5793 5794 5794 5795 5795 5795 5796 5796 5796 5796 5796 5796 5796 5796 5796 5796 5796 5796 5796 5795 5795 5795 5795 5794 5794 5793 5793 5792 5792 5791 5791 5790 5790
5787 5787 5787 5787 5787 5786 5786 5787 5787 5787 5788 5788 5788 5788 5789 5789 5790 5790 5790 5790 5790 5791 5791 5791 5790 5790 5790 5790 5790 5790 5790 5789 5789 5789 5788 5788 5787 5787 5787 5786 5786 5785 5785
5782 5782 5781 5781 5781 5779 5779 5780 5780 5781 5781 5781 5782 5782 5782 5783 5783 5783 5784 5784 5784 5784 5784 5784 5784 5784 5784 5784 5784 5783 5783 5783 5783 5783 5782 5782 5782 5781 5781 5781 5780 5780 5780
5775 5775 5775 5775 5774 5773 5772 5773 5774 5774 5774 5774 5774 5775 5775 5776 5776 5776 5777 5777 5777 5777 5777 5777 5778 5778 5777 5777 5777 5776 5776 5776 5776 5776 5776 5775 5775 5775 5775 5774 5774 5774 5774
5769 5768 5768 5768 5767 5767 5766 5766 5766 5767 5767 5767 5767 5767 5768 5768 5768 5768 5769 5769 5769 5770 5770 5770 5770 5770 5770 5769 5769 5769 5769 5768 5768 5768 5768 5768 5768 5768 5767 5767 5767 5767 5767
5761 5761 5761 5760 5760 5760 5759 5759 5758 5758 5759 5759 5759 5760 5760 5760 5760 5760 5760 5761 5761 5762 5762 5762 5762 5762 5762 5761 5761 5761 5760 5760 5760 5760 5760 5760 5759 5759 5759 5759 5759 5759 5759
5754 5754 5753 5753 5753 5752 5752 5751 5750 5750 5751 5751 5751 5751 5751 5752 5752 5752 5752 5752 5753 5753 5753 5753 5753 5753 5753 5753 5752 5752 5752 5751 5751 5751 5751 5750 5750 5750 5750 5750 5750 5750 5750
5746 5746 5745 5745 5745 5744 5744 5743 5742 5742 5742 5742 5742 5742 5742 5743 5743 5743 5743 5743 5744 5744 5744 5744 5744 5744 5744 5743 5743 5743 5743 5742 5742 5741 5741 5741 5741 5741 5740 5740 5740 5741 5741
5739 5738 5738 5737 5737 5736 5736 5735 5734 5734 5734 5734 5733 5733 5733 5733 5733 5733 5733 5734 5734 5734 5734 5734 5734 5734 5734 5734 5733 5733 5733 5733 5732 5732 5731 5731 5731 5731 5731 5731 5731 5731 5731
5730 5730 5730 5729 5728 5728 5727 5727 5726 5725 5725 5725 5724 5724 5724 5724 5724 5724 5724 5724 5724 5724 5724 5724 5724 5724 5724 5724 5723 5723 5723 5723 5722 5722 5722 5721 5721 5721 5721 5721 5721 5721 5721
5722 5721 5721 5720 5720 5719 5718 5718 5717 5717 5716 5715 5715 5715 5714 5714 5714 5714 5714 5714 5714 5714 5714 5714 5715 5714 5714 5714 5714 5713 5713 5713 5712 5712 5712 5711 5711 5711 5711 5711 5711 5711 5712
5714 5713 5712 5712 5711 5710 5709 5709 5708 5707 5707 5706 5706 5705 5705 5705 5705 5704 5704 5704 5704 5704 5704 5704 5704 5704 5704 5704 5704 5703 5703 5703 5702 5701 5701 5701 5701 5701 5701 5701 5701 5701 5702
5705 5704 5704 5703 5702 5701 5700 5699 5699 5698 5697 5697 5697 5696 5696 5695 5695 5694 5694 5694 5694 5693 5693 5693 5693 5693 5693 5693 5693 5693 5692 5692 5691 5691 5690 5690 5690 5690 5691 5691 5691 5691 5691
5696 5696 5695 5694 5693 5692 5691 5691 5690 5689 5688 5688 5687 5686 5686 5685 5685 5684 5683 5683 5683 5683 5683 5683 5683 5682 5682 5682 5682 5682 5682 5681 5681 5680 5680 5679 5679 5679 5680 5680 5680 5680 5680
5688 5687 5686 5685 5684 5683 5682 5681 5681 5680 5679 5678 5677 5676 5676 5675 5675 5674 5673 5673 5673 5672 5672 5672 5671 5671 5670 5670 5670 5670 5670 5670 5670 5669 5669 5668 5668 5668 5668 5669 5669 5669 5669
5678 5677 5676 5675 5674 5673 5672 5671 5671 5670 5670 5669 5668 5667 5666 5665 5665 5664 5664 5663 5663 5662 5662 5661 5660 5659 5658 5658 5658 5658 5659 5658 5658 5658 5658 5657 5657 5657 5657 5657 5657 5657 5657
5669 5668 5667 5666 5665 5663 5663 5662 5661 5660 5660 5659 5658 5657 5656 5655 5655 5654 5654 5653 5653 5652 5651 5650 5649 5648 5647 5647 5646 5647 5647 5647 5646 5646 5646 5645 5645 5645 5645 5645 5645 5645 5645
5659 5658 5657 5656 5654 5653 5653 5652 5651 5650 5649 5648 5648 5647 5646 5645 5644 5644 5643 5643 5642 5641 5641 5640 5638 5637 5636 5636 5636 5636 5635 5635 5635 5634 5634 5634 5633 5633 5633 5633 5633 5633 5633
5649 5648 5646 5645 5644 5643 5642 5641 5641 5640 5639 5638 5637 5636 5635 5634 5634 5633 5632 5631 5631 5630 5629 5628 5627 5627 5626 5625 5625 5624 5624 5623 5623 5622 5622 5622 5621 5621 5621 5621 5621 5620 5620
5638 5637 5636 5634 5633 5632 5631 5631 5630 5629 5628 5627 5626 5625 5624 5623 5622 5622 5621 5620 5619 5618 5618 5617 5616 5615 5615 5614 5613 5613 5612 5611 5611 5610 5610 5609 5609 5609 5608 5608 5608 5608 5608
5627 5626 5624 5623 5622 5621 5620 5619 5618 5617 5616 5615 5614 5613 5612 5611 5611 5610 5609 5608 5607 5606 5605 5605 5604 5603 5603 5602 5601 5600 5600 5599 5598 5597 5597 5597 5596 5596 5596 5595 5595 5595 5595
5616 5615 5613 5612 5611 5610 5608 5607 5606 5605 5604 5603 5602 5601 5600 5599 5598 5597 5596 5595 5594 5594 5593 5592 5591 5590 5590 5589 5588 5587 5587 5586 5585 5585 5584 5584 5583 5583 5583 5582 5582 5582 5582
5606 5604 5602 5600 5599 5598 5596 5595 5594 5593 5591 5590 5589 5588 5587 5586 5585 5584 5583 5582 5581 5580 5579 5579 5578 5577 5576 5576 5575 5574 5573 5572 5572 5571 5571 5571 5570 5570 5569 5569 5569 5568 5568
5595 5592 5591 5589 5587 5585 5584 5582 5581 5579 5578 5577 5576 5575 5574 5572 5572 5571 5570 5569 5568 5567 5566 5565 5564 5563 5562 5562 5561 5560 5559 5559 5558 5557 5557 5556 5556 5556 5555 5555 5554 5554 5554